Regional Weather Roundup
Issued by NWS

Home | Current Version | Previous Version | Graphics & Text | Print | Product List | Glossary On
Versions: 1 2 3 4 5 6 7 8 9 10 11 12 13 14 15 16 17 18 19 20 21 22 23 24 25 26 27 28 29 30 31 32 33 34 35 36 37 38 39 40 41 42 43 44 45 46 47 48 49 50
469
ASUS44 KLIX 260805
RWRLA
LOUISIANA WEATHER ROUNDUP
NATIONAL WEATHER SERVICE NEW ORLEANS LA
300 AM CDT SUN OCT 26 2014

NOTE: "FAIR" INDICATES FEW OR NO CLOUDS BELOW 12,000 FEET WITH NO
      SIGNIFICANT WEATHER AND/OR OBSTRUCTIONS TO VISIBILITY.
      SKY/WX - SKY CONDITION AND SIGNIFICANT WEATHER.
      TMP - AIR TEMPERATURE.    DP   - DEWPOINT TEMPERATURE.
      RH  - RELATIVE HUMIDITY.  PRES - PRESSURE.
      HX  - HEAT INDEX.         WCI  - WIND CHILL INDEX.

*  THESE STATIONS ARE NOT NWS OR FAA STATIONS AND ARE NOT UNDER
   NWS QUALITY CONTROL.

LAZ040-048-061>063-065-066-069-260900-
SOUTHEAST LOUISIANA

CITY           SKY/WX    TMP DP  RH WIND       PRES   REMARKS
N.O. AUDUBON     N/A     64  62  93 MISG        N/A
N.O. INTL ARPT CLEAR     62  57  83 CALM      30.05F
N.O. LAKEFRONT CLEAR     70  61  73 N6        30.05F
N.O. DOWNTOWN* FAIR      68  57  68 CALM      30.06S
SLIDELL        CLEAR     56  52  86 CALM      30.04F
BATON ROUGE    CLEAR     56  53  90 CALM      30.05F
BOOTHVILLE     CLEAR     66  64  93 NW3       30.04F
BELLE CHASSE   CLEAR     57  53  86 CALM      30.04F
BOGALUSA*        N/A     55  52  89 CALM      30.06F
NEW ROADS*     FAIR      54  53  97 CALM      30.06F
GONZALES*      FAIR      55  55 100 CALM      30.05F
HAMMOND*       CLEAR     55  52  88 CALM      30.06F
HOUMA*         CLEAR     54  54  99 CALM      30.06S FOG
PORT FOURCHON* SUNNY     66  61  82 NW7       30.08S

$$

LAZ041-044-053-054-260900-
SOUTHWEST LOUISIANA

CITY           SKY/WX    TMP DP  RH WIND       PRES   REMARKS
LAKE CHARLES   CLEAR     56  55  97 CALM      30.06F FOG
LAFAYETTE      CLEAR     58  57  97 CALM      30.06F
PATTERSON      CLEAR     55  55 100 CALM      30.08F
SALT POINT       N/A     65  62  90 CALM      30.05F
NEW IBERIA     CLEAR     57  55  93 CALM      30.06F FOG
CHENAULT AIRPK CLEAR     56  55  99 CALM      30.07S

$$

LAZ027-028-260900-
CENTRAL LOUISIANA

CITY           SKY/WX    TMP DP  RH WIND       PRES   REMARKS
FORT POLK      CLEAR     59  55  87 W1        30.06F
ALEXANDRIA INT CLEAR     56  54  93 CALM      30.04F
ALEXANDRIA     CLEAR     53  53 100 CALM      30.05F

$$

LAZ001-002-260900-
NORTHWEST LOUISIANA

CITY           SKY/WX    TMP DP  RH WIND       PRES   REMARKS
SHREVEPORT     CLEAR     61  60  97 CALM      30.03F
BARKSDALE AFB  CLEAR     61  61  97 SE5       30.04F
DTN SHREVEPORT CLEAR     67  60  78 SW3       30.04F

$$

LAZ014-016-260900-
NORTHEAST LOUISIANA

CITY           SKY/WX    TMP DP  RH WIND       PRES   REMARKS
MONROE         FOG       56  55  97 CALM      30.05S VSB 1/2
TALLULAH       CLEAR     55  54  96 CALM      30.05S

$$




USA.gov is the U.S. government's official web portal to all federal, state and local government web resources and services.